User: anonymous   Login
Location: Unspecified
(0.0000°N, 0.0000°E)
Time: 10:51:58
(UTC+00:00)
Language:

ELFIN B - Orbit

View from above orbital plane
View from above orbital plane
View from above satellite
View from above satellite

Ground track
Ground track

The orbit data is extracted from the following two-line orbital elements,

1 43616U 18070D   19107.85950315 +.00003445 +00000-0 +93012-4 0  9995
2 43616 093.0266 338.0890 0016961 178.2943 181.8372 15.37676962032913
Epoch (UTC): 17 April 2019 20:37:41
Eccentricity: 0.0016961
inclination: 93.0266°
perigee height: 441 km
apogee height: 464 km
right ascension of ascending node: 338.0890°
argument of perigee: 178.2943°
revolutions per day: 15.37676962
mean anomaly at epoch: 181.8372°
orbit number at epoch: 3291

The dashed part of the orbit path shows where the satellite is in the earth's shadow,  

DLR